Regional Weather Roundup
Issued by NWS

Home | Current Version | Previous Version | Graphics & Text | Print | Product List | Glossary On
Versions: 1 2 3 4 5 6 7 8 9 10 11 12 13 14 15 16 17 18 19 20 21 22 23 24 25 26 27 28 29 30 31 32 33 34 35 36 37 38 39 40 41 42 43 44 45 46 47 48 49 50
000
ASUS43 KMKX 181721
RWRWI

WISCONSIN REGIONAL WEATHER ROUNDUP
NATIONAL WEATHER SERVICE MILWAUKEE/SULLIVAN WI
1100 AM CST THU DEC 18 2014

NOTE: "FAIR" INDICATES FEW OR NO CLOUDS BELOW 12,000 FEET WITH NO
SIGNIFICANT WEATHER AND/OR OBSTRUCTIONS TO VISIBILITY.

WIZ001-002-006>008-014>016-023>028-181800-
NORTHWEST WISCONSIN

CITY           SKY/WX    TMP DP  RH WIND       PRES   REMARKS
SUPERIOR ARPT  CLOUDY    23  20  88 CALM      30.30F
ASHLAND        MOSUNNY   25  18  74 E6        30.31F WCI  18
HAYWARD        CLOUDY    22  16  78 E8        30.27F WCI  12
SIREN          CLOUDY    22  19  86 SE3       30.30S
CUMBERLAND     CLOUDY    21  19  93 SE5       30.27F WCI  15
RICE LAKE      CLOUDY    23  20  87 SE7       30.30S WCI  15
CHETEK         CLOUDY    22  19  88 SE3       30.29F
LADYSMITH      CLOUDY    24  20  84 SE6       30.29S WCI  17
EAU CLAIRE     CLOUDY    23  18  81 CALM      30.30S
MENOMONIE      CLOUDY    24  20  84 SE5       30.31S WCI  18
NEW RICHMOND   CLOUDY    23  20  88 SE5       30.30S WCI  16
OSCEOLA        CLOUDY    23  19  86 SE6       30.33F WCI  16
$$

WIZ003>005-009-010-017-018-181800-
NORTH CENTRAL WISCONSIN

CITY           SKY/WX    TMP DP  RH WIND       PRES   REMARKS
MANITOWISH WTR PTSUNNY   21  16  81 NE3       30.25S
ARBOR VITAE    PTSUNNY   24  18  78 S5        30.24F WCI  18
WOODRUFF       PTSUNNY   24  18  78 S5        30.24F WCI  18
RHINELANDER    PTSUNNY   21  16  81 SE3       30.24F
EAGLE RIVER    PTSUNNY   23  16  73 NE3       30.23F
LAND O LAKES   PTSUNNY   24  18  78 CALM      30.25S
PHILLIPS       CLOUDY    20  17  86 E5        30.26S WCI  13
TOMAHAWK       CLOUDY    22  18  84 CALM      30.26F
MEDFORD        CLOUDY    22  18  83 CALM      30.25F
MERRILL        CLOUDY    23  19  83 E5        30.26F WCI  17
$$

WIZ029-030-035-036-043>047-181800-
CENTRAL WISCONSIN

CITY           SKY/WX    TMP DP  RH WIND       PRES   REMARKS
WAUSAU         CLOUDY    24  18  77 E5        30.25F WCI  18
MOSINEE        CLOUDY    25  21  86 CALM      30.27F
MARSHFIELD     CLOUDY    25  19  78 E5        30.26F WCI  19
STEVENS POINT  CLOUDY    23  18  80 NE3       30.28F
WAUPACA        CLOUDY    28  21  73 NE5       30.29F WCI  23
WAUTOMA        CLOUDY    26  22  85 CALM      30.29F
WISC RAPIDS    CLOUDY    25  18  74 CALM      30.29F
CAMP DOUGLAS   FLURRIES  23  23 100 CALM      30.29F
$$

WIZ011>013-019>022-031-037>040-048>050-181800-
NORTHEAST WISCONSIN

CITY           SKY/WX    TMP DP  RH WIND       PRES   REMARKS
ANTIGO         CLOUDY    22  17  81 CALM      30.24F
SHAWANO        CLOUDY    30  21  70 E5        30.29F WCI  25
OCONTO         CLOUDY    26  20  77 N6        30.29F WCI  19
STURGEON BAY   CLOUDY    27  18  69 N8        30.27F WCI  18
GREEN BAY      CLOUDY    28  21  75 NE7       30.28F WCI  21
MANITOWOC      CLOUDY    29  24  82 NW9       30.27F WCI  20
APPLETON       CLOUDY    27  19  74 N8        30.28F WCI  18
CLINTONVILLE   CLOUDY    28  19  69 NE6       30.29F WCI  22
OSHKOSH        CLOUDY    27  21  78 N8        30.27F WCI  19
$$

WIZ032>034-041-042-053>061-181800-
SOUTHWEST WISCONSIN

CITY           SKY/WX    TMP DP  RH WIND       PRES   REMARKS
LA CROSSE      CLOUDY    24  17  74 SW3       30.32S
SPARTA         CLOUDY    23  18  82 CALM      30.31F
VIROQUA        CLOUDY    22  19  88 CALM      30.26F
BOSCOBEL       CLOUDY    24  18  77 CALM      30.32F
PRAIRIE DU CHI SUNNY     23  17  75 CALM      30.31F
PLATTEVILLE    MOSUNNY   22  17  83 CALM      30.29F
$$

WIZ056-057-062-063-064-067-068-181800-
SOUTH CENTRAL WISCONSIN

CITY           SKY/WX    TMP DP  RH WIND       PRES   REMARKS
REEDSBURG      CLOUDY    24  19  83 CALM      30.28F
BARABOO/DELLS  CLOUDY    24  19  82 CALM      30.28F
LONE ROCK      NOT AVBL
MINERAL POINT  CLOUDY    25  21  86 CALM      30.26F
MADISON        FLURRIES  25  20  81 W5        30.28F WCI  19
MIDDLETON      CLOUDY    26  21  81 CALM      30.28F
WATERTOWN      CLOUDY    25  22  87 NW3       30.27F
MONROE         CLOUDY    23  19  86 CALM      30.26F
JANESVILLE     CLOUDY    25  19  80 W6        30.29F WCI  18
$$

WIZ051-052-058>065-066-070>072-181800-
SOUTHEAST WISCONSIN

CITY           SKY/WX    TMP DP  RH WIND       PRES   REMARKS
MILWAUKEE      CLOUDY    28  22  78 W9        30.27F WCI  19
WAUKESHA       CLOUDY    21  21 100 W6        30.28F FOG     WCI  14
MILWAUKEE/TIMM CLOUDY    25  23  93 W6        30.28F FOG     WCI  18
RACINE         CLOUDY    26  21  81 W5        30.28F WCI  20
BURLINGTON     CLOUDY    24  20  83 NW3       30.27F
KENOSHA        CLOUDY    26  21  81 W6        30.27F WCI  19
FOND DU LAC    CLOUDY    27  21  78 N9        30.27F WCI  18
SHEBOYGAN      CLOUDY    28  21  75 N12       30.26F WCI  18
WEST BEND      CLOUDY    27  25  93 NW3       30.25F FOG
JUNEAU         CLOUDY    25  22  85 NW3       30.27F
$$

LSZ147-162-181800-
LAKE SUPERIOR

STATION/POSITION TIME  TEMP    WIND        PRES    WAVE
                       AIR SEA DIR/SP/G            HT/PER
                 (UTC) (F)     (DEG/KT/KT) (MB)    (FT/S)
DEVILS ISLAND    1700   28      60/ 13/ 15 1027.5F
PORT WING        1640   28     110/  3/  4 1026.8S
SAXON HARBOR     1600   26     120/  1/  8 1026.4S
$$

LMZ867-665-643>646-181800-
LAKE MICHIGAN

STATION/POSITION TIME  TEMP    WIND        PRES    WAVE
                       AIR SEA DIR/SP/G            HT/PER
                 (UTC) (F)     (DEG/KT/KT) (MB)    (FT/S)
CHAMBERS ISLAND  1600   27      20/ 13/ 15 1025.7R
NORTHPORT PIER   1600   26      30/  9/ 13 1025.4R
SISTER BAY       1628           30/  9/ 11   N/A
ALGOMA LAKESHORE 1614          340/  8/ 11   N/A
KEWAUNEE LAKESHO 1600   27     330/  3/  7 1024.3R
SHEBOYGAN LAKESH 1700   28 34  310/ 11/ 12 1025.8F
PORT WASHINGTON  1640   27     300/  5/  8 1025.7F
MILWAUKEE LAKESH 1700   27     310/  6/  8   N/A
KENOSHA   LAKESH 1700   25     280/  6/  8 1025.1F
$$

TC  - TEMPERATURE IN CELSIUS
VSB - VISIBILITY IN STATUTE MILES
WCI - WIND CHILL INDEX
HX  - HEAT INDEX




USA.gov is the U.S. government's official web portal to all federal, state and local government web resources and services.